Погода в Пинеге

Россия / Архангельская область     64°41′51″N   43°23′30″E
темп.,
°C
ветер,
м/с
пор.,
м/с
влажн.,
%
обл.,
%
осадки,
мм/ч
давл.,
гПа
погр.,
м
11 апреля, вс
вс1100:00+4ю61582100 0.0 10111283
03:00+4ю7148586 0.1 10081087
06:00+2юз51286100 1.9 10101080
09:00+3юз7127497 1.9 10121471
12:00+4юз713718 0.3 10141540
15:00+5юз8166794 1.1 10142135
18:00+3зюз613655 0.6 10171421
21:00+2зюз615685 0.6 10201107
12 апреля, пн
пн1200:00+2зюз7167540 0.0 10221172
03:00+1зюз6148069 0.0 10251024
06:00+1зюз5128363 0.0 1028881
09:00+4зюз5107541 0.0 1030816
12:00+6зюз5962100 0.0 10311090
15:00+7юз4950100 0.0 10301173
18:00+6ююз2666100 0.0 1028258
21:00+4ю31183100 0.1 1026682
13 апреля, вт
вт1300:00+6ююз51489100 0.0 1025571
03:00+6ююз51394100 0.0 1024622
06:00+6ююз51392100 0.0 1022498
09:00+8ююз51282100 0.0 1021518
12:00+11ююз5965100 0.0 1019896
15:00+11юз5766100 0.0 10181003
18:00+9ююз41082100 0.0 1018556
21:00+7ююз4129041 0.0 1018447
14 апреля, ср
ср1400:00+6ююз41193100 0.0 1017353
03:00+6ююз4129388 0.0 1016370
06:00+6ююз51490100 0.0 1014507
09:00+7юз51390100 0.4 10131262
12:00+9зюз51164100 0.3 10131497
15:00+9з6135356 0.5 10132083
18:00+5з612558 0.1 10161638
21:00+2з49685 0.1 1018660
15 апреля, чт
чт1500:00+1з410775 0.0 1019516
03:00−1зсз37855 0.0 1021312
06:00−1зсз25845 0.0 1022262
09:00+3з235383 0.0 1022780
12:00+5з4649100 0.0 10221612
15:00+5зсз5846100 0.0 10221928
18:00+3сз487078 0.4 10241153
21:00−1сз59695 0.4 1026875